Torna al catalogo

COSMOS 1823 DEB

AttivoLEO
NORAD 19440·DEBRIS·🇷🇺 Russia

Lanciato Feb 20, 1987 da Plesetsk Cosmodrome

Loading…

Prossimi Passaggi (prossime 24 ore)

TLE

AggiornatoSource: Space-Track

Epoca: Sep 14, 2026, 02:54 UTC

1 19440U 87020CA  26257.12103925  .00000052  00000-0  30568-3 0  9992
2 19440  73.7509 295.1005 0161781 113.1360 278.7982 12.75938830789870

Traccia COSMOS 1823 DEB in tempo reale con AllMySat

Download on the App Store